Weather History for KDDH - October, 2012

Change the Weather History Date:

Tuesday, October 9, 2012

  Actual Average Record
Temperature  
Mean Temperature 46 °F 50 °F  
Max Temperature 57 °F 61 °F 78 °F (2011)
Min Temperature 34 °F 38 °F 23 °F (2001)
Degree Days  
Heating Degree Days 19 15  
Month to date heating degree days 91 124  
Since 1 July heating degree days 306 402  
Cooling Degree Days 0 0  
Month to date cooling degree days 2 0  
Year to date cooling degree days 476 311  
Moisture  
Dew Point 41 °F    
Average Humidity 81    
Maximum Humidity 100    
Minimum Humidity 61    
Precipitation  
Precipitation 0.00 in 0.12 in 0.62 in (2007)
Month to date precipitation 0.79 1.11  
Year to date precipitation 25.40 32.22  
Sea Level Pressure  
Sea Level Pressure 30.21 in    
Wind  
Wind Speed 3 mph (ESE)    
Max Wind Speed 9 mph    
Max Gust Speed 13 mph    
Visibility 9 miles    
Events      
T = Trace of Precipitation, MM = Missing Value Source: NWS Daily Summary

Daily Weather History Graph

Daily Weather History Graph

Search for Another Location

Airport or City:

Trip Planner

Search our weather history database for the weather conditions in past years. The results will help you decide how hot, cold, wet, or windy it might be!

Date:

Astronomy

Oct. 09, 2012 Rise Set
Actual Time 6:59 AM EDT 6:19 PM EDT
Civil Twilight 6:31 AM EDT 6:47 PM EDT
Nautical Twilight 5:58 AM EDT 7:20 PM EDT
Astronomical Twilight 5:25 AM EDT 7:53 PM EDT
Moon 12:25 AM EDT (10/9) 2:53 PM EDT (10/9)
Length of Visible Light 12h 16m
Length of Day
11h 19m
Last Quarter, 37% of the Moon is Illuminated
Oct 9
Last Quarter
Oct 15
New
Oct 21
First Quarter
Oct 29
Full
Nov 6
Last Quarter

Hourly Weather History & Observations

Time (EDT) Temp. Dew Point Humidity Pressure Visibility Wind Dir Wind Speed Gust Speed Precip Events Conditions
12:54 AM 37.0 °F 35.1 °F 93% 30.28 in 6.0 mi Calm Calm - N/A   Clear
1:54 AM 35.1 °F 34.0 °F 96% 30.28 in 3.0 mi Calm Calm - N/A   Clear
2:54 AM 36.0 °F 34.0 °F 93% 30.27 in 10.0 mi Calm Calm - N/A   Overcast
3:54 AM 39.0 °F 37.0 °F 93% 30.26 in 9.0 mi Calm Calm - N/A   Overcast
4:54 AM 39.9 °F 37.9 °F 93% 30.27 in 9.0 mi Calm Calm - N/A   Overcast
5:54 AM 39.9 °F 37.9 °F 93% 30.27 in 9.0 mi Calm Calm - N/A   Overcast
6:19 AM 39.2 °F 37.4 °F 93% 30.25 in 8.0 mi Calm Calm - N/A   Overcast
6:54 AM 37.9 °F 37.0 °F 97% 30.27 in 5.0 mi Calm Calm - N/A   Mostly Cloudy
7:06 AM 37.4 °F 35.6 °F 93% 30.25 in 1.8 mi Calm Calm - N/A   Scattered Clouds
7:15 AM 37.4 °F 35.6 °F 93% 30.25 in 3.0 mi Calm Calm - N/A   Partly Cloudy
7:54 AM 37.0 °F 36.0 °F 96% 30.27 in 9.0 mi Calm Calm - N/A   Scattered Clouds
8:54 AM 46.0 °F 43.0 °F 89% 30.27 in 10.0 mi Calm Calm - N/A   Overcast
9:54 AM 52.0 °F 43.0 °F 71% 30.26 in 10.0 mi Variable 3.5 mph - N/A   Overcast
10:38 AM 53.6 °F 42.8 °F 67% 30.24 in 10.0 mi East 5.8 mph - N/A   Overcast
10:54 AM 55.0 °F 42.1 °F 62% 30.25 in 10.0 mi Variable 3.5 mph - N/A   Overcast
11:54 AM 54.0 °F 42.1 °F 64% 30.25 in 10.0 mi East 6.9 mph - N/A   Overcast
12:14 PM 53.6 °F 42.8 °F 67% 30.23 in 10.0 mi SE 6.9 mph - N/A   Overcast
12:54 PM 54.0 °F 44.1 °F 69% 30.23 in 10.0 mi Variable 5.8 mph - N/A   Overcast
1:54 PM 55.0 °F 44.1 °F 67% 30.19 in 10.0 mi East 8.1 mph - N/A   Overcast
2:54 PM 55.0 °F 44.1 °F 67% 30.19 in 10.0 mi East 11.5 mph - N/A   Overcast
3:54 PM 54.0 °F 44.1 °F 69% 30.17 in 10.0 mi Variable 5.8 mph - N/A   Overcast
4:54 PM 54.0 °F 44.1 °F 69% 30.17 in 10.0 mi SE 8.1 mph - N/A   Overcast
5:54 PM 53.1 °F 44.1 °F 71% 30.17 in 10.0 mi East 3.5 mph - N/A   Overcast
6:54 PM 53.1 °F 44.1 °F 71% 30.16 in 10.0 mi Variable 4.6 mph - N/A   Unknown
7:03 PM 53.6 °F 44.6 °F 72% 30.15 in 10.0 mi Calm Calm - N/A   Overcast
7:54 PM 53.1 °F 44.1 °F 71% 30.16 in 10.0 mi Calm Calm - N/A   Overcast
8:02 PM 51.8 °F 44.6 °F 76% 30.14 in 10.0 mi Calm Calm - N/A   Overcast
8:54 PM 51.1 °F 44.1 °F 77% 30.14 in 10.0 mi Calm Calm - N/A   Mostly Cloudy
9:54 PM 52.0 °F 44.1 °F 74% 30.13 in 10.0 mi Calm Calm - N/A   Overcast
10:54 PM 51.1 °F 45.0 °F 80% 30.12 in 10.0 mi Calm Calm - N/A   Overcast
11:54 PM 51.1 °F 45.0 °F 80% 30.11 in 10.0 mi ESE 4.6 mph - N/A   Overcast